Location: Hollin Hills
(38.7573°N, 77.0661°W)
Time: 23:18:19
(UTC+00:00)

ARIANE 6 FM1 Upper Stage - Visible Passes

Search period start: 16 April 2026 00:00
Search period end: 26 April 2026 00:00
Orbit: 525 x 604 km, 62.0° (Epoch: 16 April)

Date Brightness Start Highest point End Pass type
(mag) Time Alt. Az. Time Alt. Az. Time Alt. Az.
16 Apr 5.8 00:42:27 10° WNW 00:43:59 12° NW 00:45:32 10° NNW visible
24 Apr 5.9 04:03:16 10° N 04:03:19 10° N 04:03:19 10° N visible
25 Apr 5.8 04:02:31 10° NNW 04:02:46 11° NNW 04:02:46 11° NNW visible
